Location: Fort Worth, Tx
(32.7431°N, 97.3695°W)
Time: 04:43:44
(UTC-05:00)

Vanguard 2 Rocket - Visible Passes

Search period start: 31 January 2023 00:00
Search period end: 10 February 2023 00:00
Orbit: 556 x 3318 km, 32.9° (Epoch: 30 January)

Date Brightness Start Highest point End Pass type
(mag) Time Alt. Az. Time Alt. Az. Time Alt. Az.
31 Jan 9.8 19:13:24 10° WSW 19:18:25 21° SSW 19:25:35 10° SSE visible
02 Feb 10.3 19:28:54 10° SW 19:31:14 11° SSW 19:33:54 10° S visible
05 Feb 10.3 07:32:01 10° S 07:37:14 15° SSE 07:41:19 10° ESE visible
06 Feb 10.6 06:33:35 10° SSE 06:35:59 11° SSE 06:38:10 10° SE visible
07 Feb 9.8 07:41:11 10° SSW 07:49:59 25° SSE 07:55:52 10° ESE visible
08 Feb 10.2 06:40:11 10° SSW 06:48:47 20° SSE 06:54:58 10° ESE visible
09 Feb 10.5 05:40:03 10° S 05:47:15 15° SSE 05:53:00 10° ESE visible
09 Feb 9.2 07:51:43 10° SW 08:02:38 38° SSE 08:09:13 10° E visible
